Home   Weather   Marchtrenk   Past weeks

Flag for Austria Past Weather in Marchtrenk, Upper Austria, Austria — Yesterday and Last 2 Weeks

Now
48 °F

Cool.


Feels Like: 48 °F
Forecast: 44 / 70 °F
Wind: 2 mph from West

Location: Linz / Hoersching-Flughafen

Current Time: Sep 25, 2016 at 2:17:51 AM

Latest Report: Sep 25, 2016 at 1:50 AM


Visibility: N/A

Pressure: 30.21 "Hg

Humidity: 94%

Dew Point: 46 °F

Location of MarchtrenkLocation

Past Weather in Marchtrenk — Graph

°F

Marchtrenk Temperature Yesterday

Maximum temperature yesterday: 72 °F (at 3:50 PM)
Minimum temperature yesterday: 43 °F (at 6:50 AM)
Average temperature yesterday: 56 °F

High & Low Weather Summary for the Past Weeks

 TemperatureHumidityPressure
High86 °F (Sep 12, 2:50 PM)100% (Sep 10, 6:20 AM)30.36 "Hg (Sep 10, 6:20 AM)
Low43 °F (Sep 23, 6:20 AM)33% (Sep 13, 3:50 PM)29.80 "Hg (Sep 17, 12:50 AM)
Average63 °F76%30.04 "Hg
* Reported Sep 10 12:50 AM — Sep 25 12:50 AM, Marchtrenk, Weather by CustomWeather, © 2016

Note: Actual official high and low records may vary slightly from our data, if they occured in-between our weather recording intervals... More about our weather records

Advertising

Marchtrenk Weather History for the Previous 24 Hours

Scroll right to see more
 ConditionsComfort  
Time TempWeatherWind HumidityBarometerVisibility
12:50 AM
Sun, Sep 25
50 °FCool.2 mph88%30.21 "HgN/A
12:20 AM50 °FCool.2 mph88%30.24 "HgN/A
11:50 PM
Sat, Sep 24
50 °FCool.2 mph88%30.24 "HgN/A
11:20 PM50 °FCool.2 mph88%30.24 "HgN/A
10:50 PM52 °FClear.No wind88%30.24 "Hg10 mi
10:20 PM52 °FClear.2 mph88%30.24 "Hg10 mi
9:50 PM54 °FClear.2 mph82%30.24 "Hg10 mi
9:20 PM57 °FClear.3 mph72%30.24 "Hg10 mi
8:50 PM57 °FClear.3 mph67%30.24 "Hg10 mi
8:20 PM59 °FClear.1 mph63%30.24 "Hg10 mi
7:50 PM61 °FClear.2 mph59%30.24 "Hg10 mi
7:20 PM63 °FClear.2 mph56%30.24 "Hg10 mi
6:50 PM66 °FSunny.2 mph49%30.24 "Hg10 mi
6:20 PM66 °FSunny.3 mph49%30.24 "Hg10 mi
5:50 PM70 °FPassing clouds.3 mph43%30.24 "HgN/A
5:20 PM70 °FSunny.3 mph38%30.24 "Hg10 mi
4:50 PM70 °FPartly sunny.2 mph38%30.24 "HgN/A
4:20 PM70 °FPartly sunny.3 mph35%30.27 "HgN/A
3:50 PM72 °FPartly sunny.3 mph36%30.27 "HgN/A
3:20 PM70 °FPartly sunny.2 mph38%30.27 "HgN/A
2:50 PM70 °FPartly sunny.2 mph43%30.30 "HgN/A
2:20 PM70 °FPartly sunny.3 mph43%30.30 "HgN/A
1:50 PM68 °FScattered clouds.3 mph43%30.30 "HgN/A
1:20 PM66 °FScattered clouds.3 mph52%30.33 "HgN/A
12:50 PM66 °FScattered clouds.1 mph56%30.33 "HgN/A
12:20 PM64 °FScattered clouds.2 mph60%30.33 "HgN/A
11:50 AM61 °FPassing clouds.3 mph68%30.36 "HgN/A
11:20 AM61 °FPassing clouds.2 mph72%30.36 "HgN/A
10:50 AM59 °FPassing clouds.1 mph72%30.36 "HgN/A
10:20 AM55 °FSunny.1 mph82%30.36 "Hg10 mi
9:50 AM54 °FPassing clouds.1 mph82%30.36 "Hg5 mi
9:20 AM50 °FFog.1 mph94%30.36 "Hg3 mi
8:50 AM48 °FFog.2 mph94%30.36 "Hg5 mi
8:20 AM46 °FSleet. Fog.2 mph100%30.36 "Hg5 mi
7:50 AM45 °FSleet. Fog.1 mph100%30.36 "Hg5 mi
7:20 AM43 °FQuite cool.No wind100%30.36 "Hg6 mi
6:50 AM43 °FFog.1 mph100%30.33 "Hg3 mi
6:20 AM45 °FFog.2 mph93%30.33 "Hg6 mi
5:50 AM45 °FSleet. Fog.2 mph93%30.33 "HgN/A
5:20 AM45 °FFog.1 mph100%30.33 "Hg2 mi
4:50 AM45 °FClear.No wind100%30.33 "Hg5 mi
4:20 AM46 °FClear.1 mph93%30.33 "Hg10 mi
3:50 AM46 °FClear.1 mph93%30.33 "Hg10 mi
3:20 AM48 °FCool.3 mph87%30.33 "HgN/A
2:50 AM48 °FCool.2 mph94%30.33 "HgN/A
2:20 AM48 °FCool.1 mph94%30.33 "HgN/A
Weather by CustomWeather, © 2016

See weather overviewHow to use our weather pages